Tracking 22223 objects as of 26-Jan-2021
HD Live streaming from Space Station
objects crossing your sky now

OPS 8068

Track OPS 8068 now!
10-day predictions
OPS 8068 is classified as:


NORAD ID: 1580
Int'l Code: 1965-072A
Perigee: 637.7 km
Apogee: 976.1 km
Inclination: 98.4 °
Period: 100.9 minutes
Semi major axis: 7177 km
RCS: 0.631 m2 (medium)
Launch date: September 10, 1965
Source: United States (US)
Launch site: AIR FORCE WESTERN TEST RANGE (AFWTR)
aabbcc
Your satellite tracking list
Your tracking list is empty




NASA's NSSDC Master Catalog

Two Line Element Set (TLE):
1 01580U 65072A   21025.85523311  .00000047  00000-0  28111-4 0  9990
2 01580  98.3706 238.4122 0235708  99.8529 262.9350 14.27598699852077
Source of the keplerian elements: AFSPC